FW5428 Weather Reports


Display with metric or nautical units.
time (UTC)temp
F
wind
direction
speed
MPH
gust
MPH
rain 1hr
in
rain 24hr
in
rain mn
in
humidity
%
barometer
mb
20210412223905 68 0 2.0 4.0 0.00 0.00 0.00 61 1021.0
20210412223421 68 90 2.0 4.0 0.00 0.00 0.00 64 1021.0
20210412223122 69 0 2.0 4.0 0.00 0.00 0.00 60 1021.0
20210412222914 69 0 2.0 4.0 0.00 0.00 0.00 61 1020.8
20210412221853 69 45 2.0 4.0 0.00 0.00 0.00 62 1020.9
20210412221320 69 45 2.0 4.0 0.00 0.00 0.00 66 1020.9
20210412220907 69 90 2.0 4.0 0.00 0.00 0.00 66 1021.0
20210412220259 69 45 2.0 3.0 0.00 0.00 0.00 66 1020.8
20210412215910 70 45 2.0 2.0 0.00 0.00 0.00 61 1020.8
20210412215754 70 90 0.0 0.0 0.00 0.00 0.00 63 1020.8
20210412214744 70 90 0.0 0.0 0.00 0.00 0.00 64 1020.8
20210412214222 71 180 0.0 0.0 0.00 0.00 0.00 63 1020.7
20210412213706 71 180 0.0 2.0 0.00 0.00 0.00 63 1020.5
20210412213154 71 180 0.0 2.0 0.00 0.00 0.00 60 1020.5
20210412212905 72 180 1.0 2.0 0.00 0.00 0.00 61 1020.6
20210412212440 72 180 0.0 0.0 0.00 0.00 0.00 60 1020.5
20210412211624 72 180 0.0 0.0 0.00 0.00 0.00 59 1020.4
20210412211113 72 180 0.0 2.0 0.00 0.00 0.00 58 1020.4
20210412210607 73 90 0.0 2.0 0.00 0.00 0.00 58 1020.4
20210412210217 73 90 0.0 2.0 0.00 0.00 0.00 57 1020.4
20210412205955 73 180 0.0 3.0 0.00 0.00 0.00 58 1020.4
20210412205649 73 180 2.0 4.0 0.00 0.00 0.00 55 1020.3
20210412204555 73 180 1.0 4.0 0.00 0.00 0.00 54 1020.3
20210412204024 73 180 2.0 4.0 0.00 0.00 0.00 54 1020.3
20210412203510 73 180 2.0 4.0 0.00 0.00 0.00 54 1020.2
20210412203039 73 180 3.0 4.0 0.00 0.00 0.00 53 1020.2
20210412202901 73 180 3.0 5.0 0.00 0.00 0.00 57 1020.1
20210412202411 73 180 3.0 6.0 0.00 0.00 0.00 57 1020.2
20210412201422 73 225 4.0 6.0 0.00 0.00 0.00 56 1020.3
20210412200914 73 180 4.0 5.0 0.00 0.00 0.00 56 1020.3
20210412200403 73 180 3.0 4.0 0.00 0.00 0.00 57 1020.2
20210412200215 73 180 3.0 4.0 0.00 0.00 0.00 52 1020.3
20210412195933 73 180 3.0 4.0 0.00 0.00 0.00 55 1020.2
20210412195444 73 180 3.0 4.0 0.00 0.00 0.00 56 1020.3
20210412194326 73 180 3.0 4.0 0.00 0.00 0.00 53 1020.3
20210412193818 73 180 3.0 4.0 0.00 0.00 0.00 55 1020.2
20210412193301 74 135 2.0 4.0 0.00 0.00 0.00 56 1020.4
20210412192932 74 135 2.0 4.0 0.00 0.00 0.00 56 1020.3
20210412192836 73 180 3.0 6.0 0.00 0.00 0.00 55 1020.3
20210412191737 73 135 2.0 8.0 0.00 0.00 0.00 55 1020.3
20210412191222 73 90 3.0 8.0 0.00 0.00 0.00 55 1020.3
20210412190712 73 180 2.0 7.0 0.00 0.00 0.00 51 1020.3
20210412190422 73 135 2.0 6.0 0.00 0.00 0.00 54 1020.4
20210412190141 73 180 4.0 7.0 0.00 0.00 0.00 55 1020.4
20210412185705 73 180 4.0 7.0 0.00 0.00 0.00 53 1020.4
20210412184633 73 180 5.0 7.0 0.00 0.00 0.00 55 1020.4
20210412184119 73 180 4.0 7.0 0.00 0.00 0.00 56 1020.4
20210412183616 73 180 4.0 8.0 0.00 0.00 0.00 56 1020.5
20210412183221 73 180 4.0 8.0 0.00 0.00 0.00 55 1020.5
20210412183035 73 180 6.0 8.0 0.00 0.00 0.00 53 1020.6
20210412182524 73 180 4.0 8.0 0.00 0.00 0.00 55 1020.6
20210412181540 73 180 4.0 8.0 0.00 0.00 0.00 54 1020.7
20210412181031 73 180 4.0 7.0 0.00 0.00 0.00 54 1020.7
20210412180512 73 135 4.0 6.0 0.00 0.00 0.00 53 1020.8
20210412180028 72 90 4.0 11.0 0.00 0.00 0.00 55 1020.9
20210412175456 72 90 6.0 11.0 0.00 0.00 0.00 57 1021.0
20210412174431 73 135 8.0 11.0 0.00 0.00 0.00 55 1021.0
20210412173921 73 135 6.0 8.0 0.00 0.00 0.00 57 1021.0
20210412173416 72 90 4.0 8.0 0.00 0.00 0.00 57 1021.3
20210412173052 72 135 4.0 8.0 0.00 0.00 0.00 56 1021.2
20210412172912 72 180 5.0 8.0 0.00 0.00 0.00 59 1021.4
20210412172117 72 180 4.0 8.0 0.00 0.00 0.00 57 1021.3
20210412171332 71 180 5.0 8.0 0.00 0.00 0.00 58 1021.6
20210412170940 71 180 6.0 9.0 0.00 0.00 0.00 56 1021.6
20210412170651 71 180 6.0 9.0 0.00 0.00 0.00 61 1021.6
20210412170114 71 180 5.0 9.0 0.00 0.00 0.00 59 1021.6
20210412165815 71 180 6.0 8.0 0.00 0.00 0.00 57 1021.7
20210412164754 71 180 6.0 8.0 0.00 0.00 0.00 58 1021.6
20210412164234 71 180 7.0 8.0 0.00 0.00 0.00 59 1021.9
20210412163718 71 180 5.0 8.0 0.00 0.00 0.00 59 1021.8
20210412163227 71 180 6.0 8.0 0.00 0.00 0.00 60 1021.9
20210412162936 71 180 6.0 8.0 0.00 0.00 0.00 58 1022.0
20210412162652 71 135 5.0 8.0 0.00 0.00 0.00 59 1022.0
20210412161647 71 180 6.0 8.0 0.00 0.00 0.00 60 1021.9
20210412161126 71 180 7.0 9.0 0.00 0.00 0.00 61 1022.3
20210412160617 70 180 6.0 10.0 0.00 0.00 0.00 61 1022.2
20210412160151 70 180 7.0 10.0 0.00 0.00 0.00 64 1022.2
20210412155949 70 180 8.0 10.0 0.00 0.00 0.00 61 1022.3
20210412155627 71 180 6.0 8.0 0.00 0.00 0.00 64 1022.4
20210412154649 71 180 7.0 8.0 0.00 0.00 0.00 62 1022.4
20210412154041 71 180 5.0 7.0 0.00 0.00 0.00 62 1022.5
20210412153520 71 270 4.0 7.0 0.00 0.00 0.00 61 1022.5
20210412153111 71 180 3.0 7.0 0.00 0.00 0.00 60 1022.5
20210412152854 71 270 5.0 8.0 0.00 0.00 0.00 58 1022.5
20210412152240 71 225 6.0 8.0 0.00 0.00 0.00 58 1022.4
20210412151438 71 270 4.0 7.0 0.00 0.00 0.00 62 1022.6
20210412150930 71 180 4.0 6.0 0.00 0.00 0.00 58 1022.4
20210412150421 71 180 4.0 5.0 0.00 0.00 0.00 60 1022.6
20210412150113 71 180 2.0 4.0 0.00 0.00 0.00 62 1022.4
20210412145904 70 270 2.0 6.0 0.00 0.00 0.00 61 1022.5
20210412145154 70 225 3.0 6.0 0.00 0.00 0.00 62 1022.6
20210412144338 70 180 3.0 5.0 0.00 0.00 0.00 61 1022.6
20210412143833 69 225 4.0 5.0 0.00 0.00 0.00 70 1022.5
20210412105946 56 0 3.0 6.0 0.00 0.00 0.00 95 1020.9
20210412105824 55 315 2.0 4.0 0.00 0.00 0.00 95 1020.9
20210412104745 55 0 2.0 4.0 0.00 0.00 0.00 95 1020.8
20210412104223 55 0 2.0 4.0 0.00 0.00 0.00 96 1020.8
20210412103704 55 270 2.0 4.0 0.00 0.00 0.00 96 1020.7
20210412103156 55 270 2.0 4.0 0.00 0.00 0.00 97 1020.7
20210412102940 55 315 2.0 4.0 0.00 0.00 0.00 97 1020.5
20210412102656 55 315 2.0 4.0 0.00 0.00 0.00 97 1020.5
20210412101628 55 270 2.0 4.0 0.00 0.00 0.00 97 1020.5
20210412101117 55 270 2.0 4.0 0.00 0.00 0.00 97 1020.4
20210412100615 55 315 2.0 4.0 0.00 0.00 0.00 97 1020.4
20210412100146 55 315 1.0 4.0 0.00 0.00 0.00 97 1020.4
20210412095958 55 270 3.0 4.0 0.00 0.00 0.00 97 1020.3
20210412095459 55 315 0.0 4.0 0.00 0.00 0.00 97 1020.4
20210412094537 55 270 2.0 4.0 0.00 0.00 0.00 97 1020.3
20210412094031 54 315 1.0 4.0 0.00 0.00 0.00 98 1020.3
20210412093518 54 315 2.0 3.0 0.00 0.00 0.00 98 1020.2
20210412092954 54 0 2.0 4.0 0.00 0.00 0.00 98 1020.3
20210412092740 54 270 2.0 4.0 0.00 0.00 0.00 98 1020.2
20210412092123 54 270 2.0 4.0 0.00 0.00 0.00 98 1020.2
20210412091426 55 270 2.0 5.0 0.00 0.00 0.00 98 1020.2
20210412090910 55 270 4.0 5.0 0.00 0.00 0.00 97 1020.2
20210412090413 55 270 3.0 4.0 0.00 0.00 0.00 98 1020.2
20210412090105 55 315 2.0 4.0 0.00 0.00 0.00 98 1020.1
20210412085844 55 270 1.0 4.0 0.00 0.00 0.00 98 1020.1
20210412084945 55 270 2.0 4.0 0.00 0.00 0.00 98 1020.1
20210412084317 55 270 3.0 4.0 0.00 0.00 0.00 98 1020.0
20210412083815 55 315 2.0 4.0 0.00 0.00 0.00 98 1020.1
20210412083304 55 315 2.0 4.0 0.00 0.00 0.00 97 1020.1
20210412082936 56 315 2.0 5.0 0.00 0.00 0.00 96 1020.1
20210412082821 55 315 3.0 5.0 0.00 0.00 0.00 96 1020.0
20210412081853 55 270 2.0 5.0 0.00 0.00 0.00 97 1020.0
20210412081223 55 270 3.0 4.0 0.00 0.00 0.00 97 1019.8
20210412080715 55 270 2.0 4.0 0.00 0.00 0.00 97 1019.9
20210412080201 55 270 2.0 4.0 0.00 0.00 0.00 97 1019.8
20210412075847 55 270 2.0 5.0 0.00 0.00 0.00 97 1019.9
20210412075420 55 270 3.0 5.0 0.00 0.00 0.00 98 1019.9
20210412074634 55 270 2.0 5.0 0.00 0.00 0.00 98 1019.8
20210412074121 55 315 2.0 5.0 0.00 0.00 0.00 98 1019.8
20210412073612 55 315 2.0 6.0 0.00 0.00 0.00 98 1019.9
20210412073140 55 0 3.0 6.0 0.00 0.00 0.00 98 1019.9
20210412072927 55 315 3.0 5.0 0.00 0.00 0.00 98 1020.0
20210412072610 55 0 2.0 5.0 0.00 0.00 0.00 98 1019.9
20210412071537 55 0 3.0 5.0 0.00 0.00 0.00 98 1019.8
20210412071030 55 315 2.0 4.0 0.00 0.00 0.00 98 1019.8
20210412070511 55 0 2.0 3.0 0.00 0.00 0.00 98 1019.9
20210412065959 55 0 2.0 4.0 0.00 0.00 0.00 98 1019.9
20210412065750 55 0 1.0 4.0 0.00 0.00 0.00 98 1020.0
20210412065128 55 0 2.0 4.0 0.00 0.00 0.00 98 1020.0
20210412064427 55 0 3.0 4.0 0.00 0.00 0.00 98 1019.8
20210412063919 55 0 2.0 4.0 0.00 0.00 0.00 97 1020.0
20210412063418 55 0 1.0 5.0 0.00 0.00 0.00 97 1019.9
20210412063031 56 0 3.0 4.0 0.00 0.00 0.00 96 1019.9
20210412061936 56 315 2.0 4.0 0.00 0.00 0.00 96 1019.9
20210412061330 56 270 2.0 4.0 0.00 0.00 0.00 95 1019.8
20210412060832 56 315 2.0 3.0 0.00 0.00 0.00 96 1020.0
20210412055922 56 315 2.0 5.0 0.00 0.01 0.00 97 1019.9
20210412055719 56 315 2.0 5.0 0.00 0.01 0.00 96 1019.9
20210412054744 56 0 4.0 5.0 0.00 0.01 0.00 96 1020.0
20210412054233 56 0 2.0 5.0 0.00 0.01 0.00 96 1019.9
20210412053725 56 315 2.0 5.0 0.00 0.01 0.00 96 1019.8
20210412053222 56 315 3.0 5.0 0.00 0.01 0.00 97 1019.8
20210412052845 56 0 3.0 4.0 0.00 0.01 0.00 97 1019.8
20210412051644 56 0 2.0 4.0 0.00 0.01 0.00 96 1019.7
20210412051127 56 0 2.0 4.0 0.00 0.01 0.00 95 1019.8
20210412050625 56 315 2.0 4.0 0.00 0.01 0.00 95 1019.8
20210412050555 56 315 2.0 4.0 0.00 0.01 0.00 95 1019.8
20210412050232 56 315 2.0 5.0 0.00 0.01 0.00 95 1019.7
20210412045552 56 0 2.0 5.0 0.00 0.01 0.00 95 1019.9
20210412044535 56 0 2.0 4.0 0.00 0.01 0.00 95 1019.8
20210412044039 56 0 2.0 4.0 0.00 0.01 0.00 95 1019.8
20210412043539 56 0 2.0 4.0 0.00 0.01 0.00 96 1019.7
20210412043145 56 315 2.0 4.0 0.00 0.01 0.00 95 1019.7
20210412042943 57 315 2.0 3.0 0.00 0.01 0.00 95 1019.7
20210412042113 57 0 2.0 4.0 0.00 0.01 0.00 95 1019.8
20210412041436 57 270 2.0 4.0 0.00 0.01 0.00 94 1019.8
20210412040925 58 270 2.0 4.0 0.00 0.01 0.00 94 1019.6
20210412040431 58 270 2.0 4.0 0.00 0.01 0.00 94 1019.8
20210412035910 58 270 2.0 4.0 0.00 0.01 0.00 93 1019.6
20210412035813 58 270 2.0 4.0 0.00 0.01 0.00 93 1019.7
20210412034947 58 0 2.0 3.0 0.00 0.01 0.00 93 1019.7
20210412034334 58 0 0.0 2.0 0.00 0.01 0.00 94 1019.9
20210412033824 58 45 1.0 4.0 0.00 0.01 0.00 93 1019.7
20210412033322 59 270 2.0 6.0 0.00 0.01 0.00 91 1019.8
20210412032917 58 270 2.0 6.0 0.00 0.01 0.00 90 1019.8
20210412032721 58 270 3.0 6.0 0.00 0.01 0.00 91 1019.8
20210412031749 58 270 2.0 5.0 0.00 0.01 0.00 92 1019.6
20210412031235 58 315 3.0 6.0 0.00 0.01 0.00 92 1019.9
20210412030727 58 270 3.0 6.0 0.00 0.01 0.00 92 1019.7
20210412030218 58 315 3.0 5.0 0.00 0.01 0.00 92 1019.9
20210412025856 59 270 3.0 5.0 0.00 0.01 0.04 91 1019.8
20210412025601 59 270 2.0 4.0 0.00 0.01 0.04 91 1019.7
20210412024655 59 270 3.0 4.0 0.00 0.01 0.04 91 1019.8
20210412024139 58 315 3.0 5.0 0.00 0.01 0.04 91 1019.8
20210412023629 58 270 2.0 5.0 0.00 0.01 0.04 91 1019.7
20210412023141 58 315 3.0 6.0 0.00 0.01 0.04 92 1020.0
20210412022908 58 315 2.0 6.0 0.00 0.01 0.04 91 1019.9
20210412022618 58 0 2.0 6.0 0.00 0.01 0.04 92 1019.8
20210412021543 59 315 3.0 7.0 0.00 0.01 0.04 92 1019.9
20210412021039 59 315 4.0 7.0 0.00 0.01 0.04 92 1019.8
20210412020524 59 270 3.0 6.0 0.00 0.01 0.04 91 1019.8
20210412020031 59 270 3.0 6.0 0.00 0.01 0.04 91 1019.9
20210412015744 59 315 2.0 5.0 0.00 0.01 0.04 90 1019.9
20210412015048 59 270 3.0 5.0 0.00 0.01 0.04 90 1019.9
20210412014442 59 225 3.0 5.0 0.00 0.01 0.04 90 1019.8
20210412013933 59 270 2.0 5.0 0.00 0.01 0.04 90 1019.9
20210412013421 60 0 2.0 5.0 0.00 0.01 0.04 89 1019.7
20210412013151 60 0 3.0 4.0 0.00 0.01 0.04 89 1019.7
20210412012847 60 270 2.0 5.0 0.00 0.01 0.04 88 1019.8
20210412011913 60 0 2.0 5.0 0.00 0.01 0.04 88 1019.8
20210412011341 60 270 2.0 4.0 0.00 0.01 0.04 88 1019.7
20210412010831 60 270 2.0 4.0 0.00 0.01 0.04 89 1019.8
20210412010321 60 0 3.0 4.0 0.00 0.01 0.04 89 1019.7
20210412005343 60 270 2.0 5.0 0.00 0.01 0.04 89 1019.5
20210412003730 60 270 3.0 5.0 0.00 0.01 0.04 89 1019.5
20210412002955 61 270 3.0 4.0 0.00 0.01 0.04 89 1019.4
20210412001655 61 270 2.0 5.0 0.00 0.01 0.04 88 1019.1
20210412001139 61 315 3.0 5.0 0.00 0.01 0.04 87 1019.2
20210412000656 61 270 2.0 6.0 0.00 0.01 0.04 88 1019.1
20210412000134 61 270 3.0 6.0 0.00 0.01 0.04 87 1019.1
20210411235913 61 270 3.0 5.0 0.00 0.01 0.04 88 1018.9
20210411235531 61 270 3.0 4.0 0.00 0.01 0.04 88 1019.0
20210411234551 61 270 2.0 4.0 0.00 0.01 0.04 87 1018.9
20210411234040 61 270 2.0 4.0 0.00 0.01 0.04 86 1018.9
20210411233532 62 270 3.0 6.0 0.00 0.01 0.04 87 1018.9
20210411233142 62 270 3.0 6.0 0.00 0.01 0.04 87 1018.8
20210411232949 63 270 4.0 6.0 0.00 0.01 0.04 86 1018.7
20210411232527 63 270 4.0 6.0 0.00 0.01 0.04 86 1018.7
20210411231450 64 270 2.0 9.0 0.00 0.01 0.04 87 1018.6
20210411230951 65 270 2.0 10.0 0.00 0.01 0.04 85 1018.6
20210411230429 65 225 8.0 10.0 0.00 0.01 0.04 82 1018.5
20210411225952 65 270 8.0 11.0 0.00 0.01 0.04 83 1018.4
20210411225829 65 225 9.0 11.0 0.00 0.01 0.04 81 1018.4
20210411224932 65 225 8.0 11.0 0.00 0.01 0.04 81 1018.4
20210411224351 65 225 7.0 12.0 0.00 0.01 0.04 82 1018.4